�������l�o���
Date,Time,MP-1(��Sv/h),MP-2(��Sv/h),MP-3(��Sv/h),MP-4(��Sv/h),MP-5(��Sv/h),MP-6(��Sv/h),MP-7(��Sv/h),MP-8(��Sv/h),����,����(m/s),���J
2021/08/16,00:00,0.565,0.829,0.536,1.024,0.700,0.351,0.604,0.571,�k�k��,6.0,��
2021/08/16,00:10,0.567,0.829,0.536,1.022,0.699,0.353,0.604,0.571,�k�k��,5.8,��
2021/08/16,00:20,0.566,0.830,0.538,1.023,0.701,0.354,0.605,0.571,�k�k��,6.2,��
2021/08/16,00:30,0.567,0.830,0.536,1.023,0.701,0.353,0.605,0.571,�k�k��,6.4,��
2021/08/16,00:40,0.566,0.832,0.537,1.024,0.700,0.352,0.606,0.571,�k�k��,6.1,��
2021/08/16,00:50,0.568,0.834,0.537,1.022,0.698,0.352,0.606,0.572,�k�k��,5.8,��
2021/08/16,01:00,0.567,0.833,0.536,1.025,0.701,0.352,0.604,0.573,�k�k��,5.6,��
2021/08/16,01:10,0.568,0.834,0.536,1.024,0.703,0.353,0.605,0.571,�k,5.0,�L
2021/08/16,01:20,0.567,0.833,0.536,1.024,0.702,0.353,0.606,0.572,�k�k��,5.4,��
2021/08/16,01:30,0.567,0.834,0.536,1.023,0.703,0.353,0.605,0.570,�k,5.4,�L
2021/08/16,01:40,0.568,0.833,0.537,1.026,0.702,0.354,0.606,0.572,�k�k��,5.6,�L
2021/08/16,01:50,0.567,0.834,0.538,1.026,0.700,0.353,0.605,0.572,�k�k��,5.1,��
2021/08/16,02:00,0.568,0.834,0.537,1.027,0.703,0.353,0.604,0.572,�k�k��,5.6,�L
2021/08/16,02:10,0.568,0.834,0.537,1.026,0.702,0.354,0.606,0.572,�k�k��,5.6,��
2021/08/16,02:20,0.567,0.834,0.539,1.026,0.704,0.353,0.605,0.571,�k�k��,5.0,�L
2021/08/16,02:30,0.568,0.834,0.536,1.029,0.704,0.353,0.606,0.573,�k�k��,5.2,�L
2021/08/16,02:40,0.567,0.835,0.538,1.027,0.703,0.354,0.606,0.572,�k�k��,5.8,�L
2021/08/16,02:50,0.567,0.835,0.537,1.027,0.704,0.353,0.605,0.571,�k�k��,5.0,�L
2021/08/16,03:00,0.568,0.836,0.537,1.028,0.703,0.354,0.604,0.570,�k�k��,4.8,�L
2021/08/16,03:10,0.567,0.834,0.539,1.027,0.704,0.353,0.604,0.571,�k�k��,5.1,�L
2021/08/16,03:20,0.567,0.836,0.536,1.027,0.703,0.353,0.604,0.569,�k�k��,5.1,�L
2021/08/16,03:30,0.570,0.836,0.537,1.027,0.705,0.353,0.604,0.569,�k�k��,5.1,�L
2021/08/16,03:40,0.571,0.833,0.536,1.027,0.703,0.352,0.603,0.570,�k�k��,6.4,�L
2021/08/16,03:50,0.568,0.835,0.538,1.026,0.703,0.353,0.602,0.571,�k�k��,5.2,�L
2021/08/16,04:00,0.568,0.835,0.537,1.027,0.703,0.351,0.602,0.570,�k�k��,5.0,�L
2021/08/16,04:10,0.565,0.834,0.537,1.025,0.702,0.354,0.603,0.571,�k,4.6,�L
2021/08/16,04:20,0.566,0.833,0.537,1.029,0.701,0.354,0.604,0.569,�k�k��,4.2,�L
2021/08/16,04:30,0.564,0.838,0.535,1.029,0.703,0.352,0.604,0.569,�k�k��,5.0,�L
2021/08/16,04:40,0.565,0.836,0.535,1.027,0.701,0.354,0.604,0.568,�k�k��,5.0,�L
2021/08/16,04:50,0.566,0.835,0.536,1.026,0.705,0.352,0.602,0.570,�k,4.7,�L
2021/08/16,05:00,0.565,0.835,0.539,1.026,0.704,0.352,0.604,0.570,�k,4.6,�L
2021/08/16,05:10,0.567,0.834,0.536,1.028,0.703,0.351,0.604,0.570,�k�k��,5.0,�L
2021/08/16,05:20,0.565,0.837,0.537,1.026,0.704,0.354,0.602,0.570,�k�k��,5.9,�L
2021/08/16,05:30,0.567,0.833,0.536,1.025,0.705,0.353,0.604,0.569,�k�k��,5.6,��
2021/08/16,05:40,0.566,0.836,0.537,1.028,0.704,0.353,0.602,0.570,�k�k��,4.9,�L
2021/08/16,05:50,0.566,0.836,0.536,1.027,0.705,0.352,0.603,0.569,�k�k��,4.8,�L
2021/08/16,06:00,0.569,0.834,0.536,1.027,0.704,0.353,0.603,0.572,�k�k��,4.6,�L
2021/08/16,06:10,0.568,0.836,0.538,1.026,0.705,0.353,0.604,0.572,�k�k��,5.3,�L
2021/08/16,06:20,0.567,0.835,0.537,1.029,0.707,0.353,0.604,0.571,�k�k��,5.7,�L
2021/08/16,06:30,0.567,0.835,0.538,1.026,0.706,0.352,0.604,0.571,�k�k��,4.6,�L
2021/08/16,06:40,0.569,0.837,0.538,1.028,0.706,0.353,0.605,0.572,�k�k��,4.8,�L
2021/08/16,06:50,0.567,0.838,0.538,1.031,0.705,0.352,0.605,0.570,�k�k��,4.7,�L
2021/08/16,07:00,0.567,0.835,0.537,1.028,0.706,0.353,0.605,0.572,�k�k��,4.1,�L
2021/08/16,07:10,0.567,0.836,0.538,1.028,0.705,0.355,0.603,0.569,�k�k��,5.4,�L
2021/08/16,07:20,0.566,0.836,0.537,1.027,0.705,0.353,0.604,0.570,�k�k��,4.2,�L
2021/08/16,07:30,0.565,0.835,0.537,1.026,0.705,0.353,0.604,0.570,�k�k��,5.0,�L
2021/08/16,07:40,0.565,0.833,0.537,1.028,0.705,0.352,0.604,0.571,�k�k��,2.6,�L
2021/08/16,07:50,0.565,0.832,0.538,1.028,0.705,0.353,0.605,0.568,�k,2.6,�L
2021/08/16,08:00,0.565,0.832,0.538,1.026,0.704,0.353,0.602,0.570,�k,2.0,�L
2021/08/16,08:10,0.566,0.832,0.534,1.026,0.704,0.352,0.603,0.570,�k�k��,4.0,�L
2021/08/16,08:20,0.565,0.833,0.536,1.026,0.704,0.351,0.605,0.569,�k�k��,5.1,�L
2021/08/16,08:30,0.564,0.835,0.537,1.026,0.703,0.352,0.604,0.570,�k�k��,4.7,��
2021/08/16,08:40,0.565,0.835,0.536,1.026,0.704,0.354,0.605,0.570,�k�k��,5.1,�L
2021/08/16,08:50,0.565,0.835,0.536,1.028,0.707,0.354,0.603,0.568,�k�k��,4.5,�L
2021/08/16,09:00,0.566,0.835,0.537,1.027,0.706,0.353,0.603,0.571,�k�k��,3.9,�L
2021/08/16,09:10,0.567,0.835,0.538,1.030,0.706,0.353,0.605,0.570,�k�k��,4.5,�L
2021/08/16,09:20,0.565,0.836,0.538,1.027,0.705,0.354,0.604,0.571,�k�k��,4.7,�L
2021/08/16,09:30,0.566,0.835,0.537,1.024,0.706,0.352,0.605,0.572,�k�k��,4.3,�L
2021/08/16,09:40,0.567,0.838,0.538,1.030,0.706,0.353,0.604,0.571,�k�k��,4.3,�L
2021/08/16,09:50,0.564,0.837,0.538,1.028,0.706,0.353,0.605,0.570,�k,4.3,�L
2021/08/16,10:00,0.565,0.837,0.535,1.029,0.707,0.353,0.604,0.569,�k,3.5,�L
2021/08/16,10:10,0.567,0.835,0.538,1.026,0.707,0.352,0.606,0.570,�k,4.4,�L
2021/08/16,10:20,0.566,0.837,0.535,1.030,0.705,0.352,0.604,0.570,�k�k��,4.7,�L
2021/08/16,10:30,0.566,0.837,0.537,1.029,0.707,0.352,0.605,0.571,�k�k��,5.2,�L
2021/08/16,10:40,0.567,0.838,0.537,1.030,0.704,0.353,0.605,0.571,�k,4.4,�L
2021/08/16,10:50,0.567,0.839,0.538,1.027,0.707,0.353,0.604,0.571,�k,4.1,�L
2021/08/16,11:00,0.567,0.840,0.537,1.030,0.707,0.352,0.604,0.569,�k,3.8,�L
2021/08/16,11:10,0.566,0.839,0.537,1.030,0.707,0.352,0.603,0.569,�k,4.3,�L
2021/08/16,11:20,0.566,0.840,0.539,1.029,0.707,0.352,0.606,0.570,�k,5.0,�L
2021/08/16,11:30,0.566,0.839,0.539,1.029,0.709,0.353,0.606,0.569,�k,5.2,�L
2021/08/16,11:40,0.567,0.839,0.539,1.031,0.706,0.354,0.605,0.570,�k,4.9,�L
2021/08/16,11:50,0.567,0.838,0.537,1.030,0.707,0.353,0.605,0.571,�k,4.4,�L
2021/08/16,12:00,0.566,0.840,0.540,1.031,0.708,0.354,0.606,0.572,�k�k��,4.8,�L
2021/08/16,12:10,0.566,0.841,0.539,1.031,0.708,0.354,0.605,0.572,�k�k��,4.6,�L
2021/08/16,12:20,0.566,0.842,0.538,1.029,0.711,0.353,0.606,0.572,�k�k��,4.9,�L
2021/08/16,12:30,0.568,0.841,0.538,1.030,0.709,0.353,0.607,0.571,�k�k��,4.0,�L
2021/08/16,12:40,0.567,0.837,0.540,1.030,0.708,0.352,0.607,0.572,�k�k��,3.5,�L
2021/08/16,12:50,0.567,0.839,0.541,1.031,0.709,0.354,0.607,0.571,�k�k��,4.3,�L
2021/08/16,13:00,0.568,0.841,0.539,1.032,0.708,0.353,0.605,0.571,�k�k��,4.5,�L
2021/08/16,13:10,0.567,0.840,0.538,1.031,0.709,0.353,0.607,0.571,�k�k��,4.3,��
2021/08/16,13:20,0.567,0.842,0.538,1.033,0.711,0.353,0.607,0.571,�k,4.1,�L
2021/08/16,13:30,0.567,0.842,0.540,1.034,0.709,0.352,0.608,0.572,�k,3.4,�L
2021/08/16,13:40,0.568,0.839,0.537,1.030,0.710,0.353,0.608,0.572,�k,4.2,�L
2021/08/16,13:50,0.565,0.841,0.535,1.033,0.710,0.352,0.609,0.572,�k�k��,4.2,�L
2021/08/16,14:00,0.568,0.839,0.536,1.031,0.711,0.353,0.607,0.572,�k�k��,4.6,�L
2021/08/16,14:10,0.566,0.841,0.537,1.031,0.711,0.354,0.609,0.572,�k�k��,3.7,�L
2021/08/16,14:20,0.568,0.842,0.537,1.032,0.710,0.353,0.607,0.573,�k�k��,3.9,�L
2021/08/16,14:30,0.566,0.842,0.539,1.031,0.713,0.354,0.608,0.571,�k,3.5,�L
2021/08/16,14:40,0.566,0.841,0.537,1.032,0.711,0.351,0.608,0.572,�k�k��,3.4,�L
2021/08/16,14:50,0.568,0.843,0.539,1.032,0.710,0.352,0.608,0.570,�k�k��,3.6,�L
2021/08/16,15:00,0.567,0.842,0.538,1.032,0.711,0.352,0.608,0.573,�k,4.5,�L
2021/08/16,15:10,0.569,0.843,0.539,1.030,0.709,0.352,0.609,0.572,�k,4.7,�L
2021/08/16,15:20,0.568,0.843,0.541,1.034,0.711,0.354,0.608,0.572,�k,4.0,�L
2021/08/16,15:30,0.568,0.841,0.541,1.033,0.712,0.354,0.607,0.573,�k,5.1,��
2021/08/16,15:40,0.568,0.842,0.539,1.032,0.712,0.354,0.607,0.573,�k�k��,4.5,��
2021/08/16,15:50,0.569,0.844,0.541,1.036,0.711,0.353,0.607,0.573,�k,4.3,��
2021/08/16,16:00,0.569,0.842,0.538,1.033,0.711,0.354,0.609,0.573,�k,5.2,��
2021/08/16,16:10,0.569,0.843,0.539,1.033,0.712,0.355,0.609,0.572,�k,4.3,��
2021/08/16,16:20,0.568,0.843,0.539,1.035,0.713,0.353,0.609,0.574,�k,3.4,��
2021/08/16,16:30,0.567,0.843,0.539,1.034,0.712,0.352,0.609,0.572,�k,3.6,��
2021/08/16,16:40,0.568,0.844,0.539,1.036,0.713,0.353,0.609,0.573,�k,3.6,��
2021/08/16,16:50,0.569,0.844,0.539,1.034,0.713,0.352,0.608,0.573,�k,3.6,�L
2021/08/16,17:00,0.568,0.846,0.538,1.034,0.715,0.352,0.608,0.573,�k,3.9,�L
2021/08/16,17:10,0.568,0.843,0.539,1.032,0.712,0.353,0.609,0.572,�k,3.9,�L
2021/08/16,17:20,0.569,0.845,0.540,1.034,0.713,0.354,0.608,0.574,�k,4.4,�L
2021/08/16,17:30,0.569,0.845,0.539,1.035,0.713,0.354,0.609,0.574,�k,4.1,�L
2021/08/16,17:40,0.569,0.844,0.539,1.036,0.714,0.354,0.610,0.574,�k,3.5,��
2021/08/16,17:50,0.569,0.843,0.541,1.036,0.714,0.355,0.610,0.573,�k,4.2,��
2021/08/16,18:00,0.570,0.846,0.541,1.034,0.714,0.355,0.609,0.575,�k,4.3,��
2021/08/16,18:10,0.571,0.845,0.540,1.035,0.712,0.355,0.609,0.574,�k,3.5,��
2021/08/16,18:20,0.568,0.847,0.541,1.036,0.714,0.353,0.609,0.574,�k�k��,3.3,��
2021/08/16,18:30,0.571,0.845,0.542,1.033,0.713,0.354,0.609,0.574,�k,4.5,��
2021/08/16,18:40,0.572,0.845,0.540,1.038,0.714,0.354,0.610,0.574,�k,3.9,��
2021/08/16,18:50,0.570,0.849,0.541,1.036,0.715,0.355,0.610,0.576,�k,3.8,��
2021/08/16,19:00,0.571,0.846,0.542,1.036,0.715,0.354,0.609,0.574,�k�k��,4.2,��
2021/08/16,19:10,0.571,0.847,0.541,1.036,0.715,0.354,0.609,0.574,�k�k��,4.5,��
2021/08/16,19:20,0.573,0.847,0.541,1.036,0.715,0.355,0.611,0.575,�k�k��,4.5,�L
2021/08/16,19:30,0.570,0.844,0.541,1.035,0.717,0.354,0.610,0.575,�k�k��,4.4,�L
2021/08/16,19:40,0.571,0.847,0.541,1.035,0.715,0.355,0.608,0.576,�k�k��,5.2,�L
2021/08/16,19:50,0.571,0.847,0.543,1.036,0.715,0.354,0.608,0.575,�k�k��,5.2,�L
2021/08/16,20:00,0.570,0.848,0.542,1.038,0.717,0.354,0.608,0.577,�k�k��,4.3,�L
2021/08/16,20:10,0.571,0.846,0.540,1.036,0.717,0.353,0.610,0.576,�k�k��,5.3,�L
2021/08/16,20:20,0.568,0.847,0.540,1.035,0.716,0.355,0.609,0.575,�k�k��,5.6,�L
2021/08/16,20:30,0.570,0.848,0.542,1.037,0.718,0.355,0.609,0.575,�k�k��,5.2,��
2021/08/16,20:40,0.570,0.847,0.541,1.037,0.717,0.354,0.609,0.575,�k�k��,5.1,��
2021/08/16,20:50,0.571,0.849,0.541,1.038,0.717,0.354,0.610,0.577,�k�k��,5.6,��
2021/08/16,21:00,0.571,0.851,0.542,1.034,0.718,0.355,0.610,0.576,�k�k��,5.5,��
2021/08/16,21:10,0.572,0.848,0.541,1.037,0.718,0.355,0.609,0.577,�k�k��,5.8,�L
2021/08/16,21:20,0.570,0.846,0.543,1.035,0.718,0.356,0.609,0.578,�k�k��,5.9,�L
2021/08/16,21:30,0.571,0.849,0.541,1.037,0.719,0.356,0.612,0.577,�k�k��,5.2,�L
2021/08/16,21:40,0.570,0.847,0.542,1.036,0.719,0.356,0.609,0.576,�k�k��,5.5,�L
2021/08/16,21:50,0.571,0.849,0.540,1.037,0.720,0.355,0.611,0.577,�k�k��,5.3,�L
2021/08/16,22:00,0.571,0.849,0.542,1.037,0.718,0.357,0.609,0.578,�k�k��,5.2,�L
2021/08/16,22:10,0.570,0.849,0.540,1.035,0.718,0.356,0.611,0.577,�k�k��,5.4,��
2021/08/16,22:20,0.572,0.850,0.542,1.037,0.718,0.356,0.611,0.577,�k�k��,5.8,��
2021/08/16,22:30,0.573,0.846,0.540,1.039,0.718,0.356,0.611,0.576,�k�k��,5.7,��
2021/08/16,22:40,0.570,0.850,0.541,1.038,0.719,0.356,0.610,0.577,�k�k��,5.2,��
2021/08/16,22:50,0.573,0.850,0.542,1.037,0.719,0.355,0.609,0.579,�k�k��,5.6,��
2021/08/16,23:00,0.572,0.847,0.543,1.038,0.719,0.355,0.609,0.579,�k�k��,5.2,��
2021/08/16,23:10,0.572,0.849,0.542,1.040,0.719,0.354,0.610,0.575,�k�k��,5.5,��
2021/08/16,23:20,0.572,0.849,0.543,1.038,0.719,0.356,0.611,0.577,�k�k��,4.9,��
2021/08/16,23:30,0.573,0.849,0.541,1.039,0.720,0.355,0.612,0.576,�k�k��,4.9,��
2021/08/16,23:40,0.572,0.850,0.543,1.040,0.719,0.357,0.612,0.577,�k�k��,4.6,��
2021/08/16,23:50,0.572,0.848,0.543,1.037,0.718,0.356,0.610,0.577,�k�k��,4.4,��
